Regional Weather Roundup
Issued by NWS

Home | Current Version | Previous Version | Text Only | Print | Product List | Glossary Off
Versions: 1 2 3 4 5 6 7 8 9 10 11 12 13 14 15 16 17 18 19 20 21 22 23 24 25 26 27 28 29 30 31 32 33 34 35 36 37 38 39 40 41 42 43 44 45 46 47 48 49 50

000
ASUS43 KLMK 030610
RWRKY
KENTUCKY REGIONAL WEATHER ROUNDUP
NATIONAL WEATHER SERVICE LOUISVILLE KY
200 AM EDT FRI JUL 03 2015

NOTE "FAIR" INDICATES FEW OR NO CLOUDS BELOW 12,000 FEET
WITH NO SIGNIFICANT WEATHER AND/OR OBSTRUCTIONS TO VISIBILITY.

KYZ001>023-026-027-061>063-070>075-030700-
WESTERN AND SOUTH CENTRAL KENTUCKY

CITY           SKY/WX    TMP DP  RH WIND       PRES   REMARKS
PADUCAH        CLOUDY    73  69  87 N3        29.86F
HENDERSON      MOCLDY    73  70  88 NW5       29.85F
OWENSBORO      MOCLDY    74  72  93 CALM      29.86F
HOPKINSVILLE   RAIN      73  68  83 CALM      29.86F
BOWLING GREEN  MOCLDY    74  70  87 CALM      29.86F
GLASGOW        CLOUDY    71  71 100 CALM      29.87F
$$

KYZ024-025-028>034-038-045-046-053-030700-
NORTH CENTRAL KENTUCKY

CITY           SKY/WX    TMP DP  RH WIND       PRES   REMARKS
LOUISVILLE/SDF CLOUDY    74  70  87 CALM      29.86S
LOUISVILLE/LOU MOCLDY    72  70  93 CALM      29.87S
FORT KNOX      CLOUDY    72  70  94 CALM      29.85F
$$

KYZ035>037-039>044-047>052-055>060-089>105-030700-
NORTHEAST KENTUCKY

CITY           SKY/WX    TMP DP  RH WIND       PRES   REMARKS
LEXINGTON      CLOUDY    71  68  90 E3        29.88F
COVINGTON      CLOUDY    69  65  86 E8        29.91R FOG
FRANKFORT      CLOUDY    70  68  93 NE3       29.87F
$$

KYZ054-064>069-076>088-106>120-030700-
SOUTHEAST KENTUCKY

CITY           SKY/WX    TMP DP  RH WIND       PRES   REMARKS
JACKSON        MOCLDY    67  66  97 CALM      29.91S
LONDON         CLOUDY    71  66  84 CALM      29.91S
SOMERSET       CLOUDY    70  70 100 CALM      29.91R
MIDDLESBORO    CLOUDY    71  70  97 CALM      29.93R
MONTICELLO     FOG       70  70 100 CALM      29.92F VSB 1
$$



USA.gov is the U.S. government's official web portal to all federal, state and local government web resources and services.